Regional Weather Roundup
Issued by NWS

Home | Current Version | Previous Version | Graphics & Text | Print | Product List | Glossary On
Versions: 1 2 3 4 5 6 7 8 9 10 11 12 13 14 15 16 17 18 19 20 21 22 23 24 25 26 27 28 29 30 31 32 33 34 35 36 37 38 39 40 41 42 43 44 45 46 47 48 49 50
000
ASUS43 KMKX 272300
RWRWI

WISCONSIN REGIONAL WEATHER ROUNDUP
NATIONAL WEATHER SERVICE MILWAUKEE/SULLIVAN WI
600 PM CDT SUN JUL 27 2014

NOTE: "FAIR" INDICATES FEW OR NO CLOUDS BELOW 12,000 FEET WITH NO
SIGNIFICANT WEATHER AND/OR OBSTRUCTIONS TO VISIBILITY.

WIZ001-002-006>008-014>016-023>028-280000-
NORTHWEST WISCONSIN

CITY           SKY/WX    TMP DP  RH WIND       PRES   REMARKS
SUPERIOR ARPT  CLOUDY    61  54  78 NW3       30.06R
ASHLAND        CLOUDY    62  53  72 NW3       30.04R
HAYWARD        SUNNY     63  52  67 NE12G21   30.04R
SIREN          CLOUDY    65  55  70 NE9       30.04R
RICE LAKE      PTSUNNY   65  54  69 N20G25    30.02R
LADYSMITH      CLOUDY    62  55  78 N14G22    30.01R
EAU CLAIRE     NOT AVBL
MENOMONIE      CLEAR     71  57  60 N17G24    29.97R
NEW RICHMOND   MOSUNNY   68  59  71 N12       29.99R
OSCEOLA        MOSUNNY   71  61  70 N13G20    30.02R
$$

WIZ003>005-009-010-017-018-280000-
NORTH CENTRAL WISCONSIN

CITY           SKY/WX    TMP DP  RH WIND       PRES   REMARKS
WOODRUFF       CLOUDY    59  55  84 N9        29.98R
RHINELANDER    MOSUNNY   60  52  74 N10G21    29.96R
EAGLE RIVER    CLOUDY    60  50  69 N13       29.95R
LAND O LAKES   PTSUNNY   62  50  66 N12G18    29.97R
PHILLIPS       CLOUDY    60  55  84 N17       29.98R
TOMAHAWK       CLOUDY    62  55  77 N13G21    29.95R
MEDFORD        PTSUNNY   66  59  78 N17G25    29.93R
MERRILL        PTSUNNY   66  59  80 N17G24    29.92R
$$

WIZ029-030-035-036-043>047-280000-
CENTRAL WISCONSIN

CITY           SKY/WX    TMP DP  RH WIND       PRES   REMARKS
WAUSAU         LGT RAIN  66  60  81 N12G30    29.88R
MOSINEE        PTSUNNY   68  61  77 N16G23    29.89R
MARSHFIELD     CLOUDY    68  59  73 N12       29.90R
STEVENS POINT  PTSUNNY   69  57  65 N10G18    29.86R
WAUPACA        LGT RAIN  69  64  85 N8G16     29.83R
WAUTOMA        NOT AVBL
WISC RAPIDS    MOSUNNY   68  61  78 MISG      29.88R
CAMP DOUGLAS   NOT AVBL
$$

WIZ011>013-019>022-031-037>040-048>050-280000-
NORTHEAST WISCONSIN

CITY           SKY/WX    TMP DP  RH WIND       PRES   REMARKS
ANTIGO         CLOUDY    62  57  83 N17G23    29.90R
STURGEON BAY   CLOUDY    64  55  72 N29G36    29.82R
GREEN BAY      PTSUNNY   70  61  73 N23G30    29.81R
MANITOWOC      HVY RAIN  66  61  82 N15       29.78R
APPLETON       PTSUNNY   70  59  68 N15G22    29.82R
CLINTONVILLE   CLOUDY    70  57  64 N12G17    29.84R
OSHKOSH        PTSUNNY   70  60  70 N22G30    29.80R
$$

WIZ032>034-041-042-053>061-280000-
SOUTHWEST WISCONSIN

CITY           SKY/WX    TMP DP  RH WIND       PRES   REMARKS
LA CROSSE      MOSUNNY   75  62  64 NW15      29.90R
SPARTA         LGT RAIN  67  62  84 N6        29.90R
VIROQUA        MOCLDY    71  61  70 NW13      29.90R
BOSCOBEL       PTSUNNY   79  60  52 NW8G20    29.88R HX  80
PRAIRIE DU CHI MOSUNNY   74  55  51 NW14G24   29.89R
PLATTEVILLE    FAIR      74  56  53 NW18G25   29.88R
$$

WIZ056-057-062-063-064-067-068-280000-
SOUTH CENTRAL WISCONSIN

CITY           SKY/WX    TMP DP  RH WIND       PRES   REMARKS
BARABOO/DELLS  LGT RAIN  69  61  75 NW10G26   29.85R
LONE ROCK      NOT AVBL
WATERTOWN      MOSUNNY   73  59  60 NW15G28   29.78S
MADISON        PTSUNNY   74  60  61 NW13G23   29.82R
MIDDLETON      FAIR      73  61  64 NW13G20   29.83S
MONROE         CLOUDY    72  55  56 NW15G26   29.84R
JANESVILLE     PTSUNNY   68  61  77 NW13      29.81R
$$

WIZ051-052-058>065-066-070>072-280000-
SOUTHEAST WISCONSIN

CITY           SKY/WX    TMP DP  RH WIND       PRES   REMARKS
MILWAUKEE      PTSUNNY   69  62  78 NW12      29.77R
WAUKESHA       NOT AVBL
MILWAUKEE/TIMM MOSUNNY   68  61  77 NW9       29.77R
RACINE         CLOUDY    70  59  68 N12       29.78R
BURLINGTON     MOSUNNY   72  56  57 NW17G26   29.78R
KENOSHA        PTSUNNY   73  60  63 NW13G23   29.77R
FOND DU LAC    PTSUNNY   70  60  70 N13G23    29.81R
SHEBOYGAN      PTSUNNY   67  60  78 NE8       29.78R
WEST BEND      LGT RAIN  68  59  73 NW10      29.78R
JUNEAU         LGT RAIN  69  56  63 NW13G18   29.80R
$$

LSZ147-162-280000-
LAKE SUPERIOR

STATION/POSITION TIME  TEMP    WIND        PRES    WAVE
                       AIR SEA DIR/SP/G            HT/PER
                 (UTC) (F)     (DEG/KT/KT) (MB)    (FT/S)
W MID LAKE BUOY  2150   49 42  270/  6/  6 1015.4R   1/ 4
PORT WING        2200   60      30/  3/  5 1016.9
SAXON HARBOR     2200           20/  3/  6 1016.3R
$$

LMZ867-665-643>646-280000-
LAKE MICHIGAN

STATION/POSITION TIME  TEMP    WIND        PRES    WAVE
                       AIR SEA DIR/SP/G            HT/PER
                 (UTC) (F)     (DEG/KT/KT) (MB)    (FT/S)
N MID LAKE BUOY  2150   60 56  360/ 17/ 19 1006.6R
NORTHPORT PIER   2200   63     350/ 26/ 31 1008.5R
KEWAUNEE LAKESHO 2200   56      10/  6/  9 1008.7R
SHEBOYGAN LAKESH 2200   65      10/ 11/ 12 1007.2F
PORT WASHINGTON  2240   73     340/  8/ 14 1008.1R
ATWATER BUOY     2200   58     330/ 10     1008.2R
MILWAUKEE LAKESH 2200   67     330/ 16/ 28   N/A
S MID LAKE BUOY  2150   64 62  310/ 10/ 12 1006.3R   2/ 4
KENOSHA   LAKESH 2200   76     300/ 13/ 26 1006.8R
$$

TC  - TEMPERATURE IN CELSIUS
VSB - VISIBILITY IN STATUTE MILES
WCI - WIND CHILL INDEX
HX  - HEAT INDEX




USA.gov is the U.S. government's official web portal to all federal, state and local government web resources and services.